Terug naar catalogus

STARLINK-36091

ActiefCommunicatieVLEO
NORAD 66848·PAYLOAD·🇺🇸 United States

Gelanceerd Dec 2, 2025 vanaf Cape Canaveral Space Force Station

Loading…

Volgende Passages (komende 24 uur)

TLE

VersSource: CelesTrak SupGP

Epoch: Sep 14, 2026, 22:33 UTC

1 66848C 25281A   26257.94006944 -.00012569  00000+0 -45529-3 0  2577
2 66848  43.0038 355.0299 0001481 272.2888 137.1462 15.27580457    15

Volg STARLINK-36091 in realtime met AllMySat

Download on the App Store